SCP
0 0 0 0 0 0 0 0 0 0 0 0 0 0 0 0 0 0 0 0 0 0 0 0 0 0 0 0 0 0 0 0 0 0 0 0 0 0
0 0 0 0 0 0 0 0 0 0 0 0 0 0 0 0 0 0 0 0 0 0 0 0 0 0 0 0 0 0 0 0 0 0 0 0 0 0
0 0 0 0 0 0 0 0 0 0 0 0 0 0 0 0 0 0 0 0 0 0 0 0 0 0 0 0 0 0 0 0 0 0 0 0 0 0
0 0 0 0 0 0 0 0 0 0 0 0 0 0 0 0 0 0 0 0 0 0 0 0 0 0 0 0 0 0 0 0 0 0 0 0 0 0
0 0 0 0 0 0 0 0 0 0 0 0 0 0 0 0 0 0 0 0 0 0 0 0 0 0 0 0 0 0 0 0 0 0 0 0 0 0
0 0 0 0 0 0 0 0 0 0 0 0 0 0 0 0 0 0 0 0 0 0 0 0 0 0 0 0 0 0 0 0 0 0 0 0 0 0
0 0 0 0 0 0 0 0 0 0 0 0 0 0 0 0 0 0 0 0 0 0 0 0 0 0 0 0 0 0 0 0 0 0 0 0 0 0
0 0 0 0 0 0 0 0 0 0 0 0 0 0 0 0 0 0 0 0 0 0 0 0 0 0 0 0 0 0 0 0 0 0 0 0 0 0
0 0 0 0 0 0 0 0 0 0 0 0 0 0 0 0 0 0 0 0 0 0 0 0 0 0 0 0 0 0 0 0 0 0 0 0 0 0
0 0 0 0 0 0 0 0 0 0 0 0 0 0 0 0 0 0 0 0 0 0 0 0 0 0 0 0 0 0 0 0 0 0 0 0 0 0
0 0 0 0 0 0 0 0 0 0 0 0 0 0 0 0 0 0 0 0 0 0 0 0 0 0 0 0 0 0 0 0 0 0 0 0 0 0
0 0 0 0 0 0 0 0 0 0 0 0 0 0 0 0 0 0 0 0 0 0 0 0 0 0 0 0 0 0 0 0 0 0 0 0 0 0
0 0 0 0 0 0 0 0 0 0 0 0 0 0 0 0 0 0 0 0 0 0 0 0 0 0 0 0 0 0 0 0 0 0 0 0 0 0
0 0 0 0 0 0 0 0 0 0 0 0 0 0 0 0 0 0 0 0 0 0 0 0 0 0 0 0 0 0 0 0 0 0 0 0 0 0
0 0 0 0 0 0 0 0 0 0 0 0 0 0 0 0 0 0 0 0 0 0 0 0 0 0 0 0 0 0 0 0 0 0 0 0 0 0
0 0 0 0 0 0 0 0 0 0 0 0 0 0 0 0 0 0 0 0 0 0 0 0 0 0 0 0 0 0 0 0 0 0 0 0 0 0
0 0 0 0 0 0 0 0 0 0 0 0 0 0 0 0 0 0 0 0 0 0 0 0 0 0 0 0 0 0 0 0 0 0 0 0 0 0
0 0 0 0 0 0 0 0 0 0 0 0 0 0 0 0 0 0 0 0 0 0 0 0 0 0 0 0 0 0 0 0 0 0 0 0 0 0
0 0 0 0 0 0 0 0 0 0 0 0 0 0 0 0 0 0 0 0 0 0 0 0 0 0 0 0 0 0 0 0 0 0 0 0 0 0
0 0 0 0 0 0 0 0 0 0 0 0 0 0 0 0 0 0 0 0 0 0 0 0 0 0 0 0 0 0 0 0 0 0 0 0 0 0
0 0 0 0 0 0 0 0 0 0 0 0 0 0 0 0 0 0 0 0 0 0 0 0 0 0 0 0 0 0 0 0 0 0 0 0 0 0
0 0 0 0 0 0 0 0 0 0 0 0 0 0 0 0 0 0 0 0 0 0 0 0 0 0 0 0 0 0 0 0 0 0 0 0 0 0
0 0 0 0 0 0 0 0 0 0 -0 -0 -0 -0 -0 0 0 0 0 0 0 0 0 0 0 0 0 0 0 0 0 0 0 0 0 0 0 0
Wind_Speed
3 3 3 2 2 2 2 3 3 2 3 2 2 2 2 2 2 2 2 2 3 3 4 5 7 7 8 8 8 8 8 8 8 8 9 9 10 11
2 2 2 2 1 1 2 2 3 3 3 2 2 2 3 3 2 2 2 2 2 3 3 4 5 6 6 7 7 7 8 8 8 8 8 8 8 8
2 2 2 2 1 1 1 1 2 2 3 3 2 2 2 2 3 2 2 1 1 2 2 3 4 4 4 5 5 6 6 6 7 7 6 6 6 7
2 2 2 1 1 1 1 1 1 2 2 3 2 2 2 2 2 2 2 1 1 2 1 1 2 2 3 3 3 3 4 4 4 4 5 5 6 7
1 1 1 0 1 1 0 0 1 0 1 2 2 1 1 2 2 2 2 2 2 2 1 1 1 1 1 1 2 2 2 2 2 2 3 3 3 4
1 1 1 0 1 1 0 1 0 0 0 1 1 1 1 2 1 2 2 2 2 3 3 2 2 1 1 1 1 1 2 2 2 2 2 2 2 3
2 1 1 2 1 0 1 1 1 0 0 0 1 1 2 2 2 2 2 2 2 2 2 2 2 1 1 2 1 1 0 0 0 1 1 1 1 2
2 2 2 3 3 3 3 2 1 1 1 0 1 1 2 2 2 2 2 2 2 2 1 2 2 2 2 2 3 3 3 2 2 1 1 0 0 1
2 2 2 3 3 3 4 5 4 3 1 1 1 2 2 2 1 2 1 2 2 2 1 2 2 2 2 3 4 3 3 2 2 2 1 1 1 1
3 3 3 3 3 2 3 3 3 4 3 1 1 2 2 2 1 2 2 1 1 1 1 2 2 2 2 2 4 4 4 3 3 2 2 2 1 1
4 4 3 3 5 4 4 4 4 4 5 5 5 4 5 5 3 1 1 1 1 2 2 1 2 2 2 1 2 3 3 2 2 2 2 2 2 1
3 4 6 5 5 5 4 4 4 3 3 4 5 6 5 6 6 3 1 1 1 2 2 2 2 2 2 1 2 2 2 2 3 3 3 3 2 1
3 3 4 6 6 6 5 4 3 2 3 4 4 4 4 4 4 4 2 1 1 1 2 2 2 1 1 2 2 2 2 2 2 2 3 3 2 1
3 3 3 6 8 8 6 6 6 5 4 4 4 4 4 4 4 4 3 3 2 1 2 2 1 1 1 1 2 2 2 2 2 2 3 3 2 2
4 6 6 7 7 7 9 9 6 4 4 4 4 3 3 4 4 3 4 3 3 3 3 2 2 1 1 1 2 2 2 2 2 2 3 3 2 2
5 6 8 9 7 7 7 6 5 4 4 3 3 3 3 4 4 4 3 4 3 4 4 4 3 2 2 2 2 2 2 2 2 3 3 2 2 2
5 5 5 5 5 5 5 5 4 4 4 3 3 3 4 4 4 4 3 3 3 4 5 4 4 3 2 3 2 2 2 3 3 3 3 3 3 2
7 6 5 4 4 4 4 4 4 4 3 3 3 3 3 3 4 4 4 4 4 4 4 4 4 3 3 3 3 3 3 3 3 3 2 2 3 3
7 5 4 4 3 3 3 3 3 3 3 3 3 3 3 3 3 4 4 4 4 4 4 4 4 3 4 5 4 4 4 4 3 3 3 3 3 3
5 4 3 3 3 2 2 2 3 3 3 3 3 3 3 3 3 3 4 4 4 4 4 4 4 4 3 3 4 4 5 4 3 3 3 3 2 2
3 3 3 2 2 2 2 2 2 2 3 3 3 3 3 3 3 3 3 4 4 4 4 5 5 6 3 2 2 4 4 4 3 3 3 3 3 3
3 2 2 2 2 2 2 2 2 2 3 2 2 3 3 2 3 3 3 3 4 4 4 4 5 4 3 3 4 5 5 5 5 4 3 3 2 3
2 2 2 2 2 2 2 2 2 2 2 2 3 3 3 3 3 3 3 3 3 4 4 4 4 4 4 4 4 4 6 6 4 4 4 5 4 4
Wind_Direction
231 227 233 239 226 225 219 210 214 256 279 284 295 317 302 274 275 259 257 257 243 239 232 230 232 232 232 232 232 233 236 237 239 241 243 245 245 245
230 225 237 240 233 228 227 226 224 225 256 284 275 306 317 316 316 279 271 278 267 261 253 243 238 237 235 236 236 236 236 237 238 238 238 239 241 244
248 227 242 230 231 241 237 232 230 214 239 281 288 309 315 316 322 313 299 285 300 283 272 263 251 244 239 235 237 240 238 236 238 239 239 239 242 243
254 244 258 232 213 245 235 235 226 214 220 266 301 311 300 314 322 329 334 333 325 355 326 295 267 248 240 232 233 238 241 238 239 244 244 244 244 244
261 241 257 207 237 243 206 220 242 218 215 237 289 313 308 337 338 342 343 337 342 360 354 350 337 284 255 237 227 222 225 225 221 229 238 245 250 251
25 357 298 230 239 237 217 230 197 123 188 224 285 315 316 328 352 345 346 340 333 350 356 12 14 2 327 279 247 216 213 209 204 213 230 249 258 261
57 29 26 56 63 159 200 206 174 160 155 163 292 331 343 350 340 324 321 320 325 346 333 345 352 353 353 332 324 350 119 147 188 220 239 246 250 248
75 41 43 42 48 58 67 73 103 137 168 216 278 297 305 312 321 322 318 319 317 343 323 331 358 352 353 15 36 61 74 77 74 66 47 33 341 283
82 59 49 38 40 60 61 59 49 46 80 198 249 280 288 297 300 304 295 285 286 320 309 318 337 334 358 21 30 48 63 67 66 62 46 6 324 269
69 67 63 37 34 62 74 57 42 31 28 31 357 323 329 319 280 260 259 275 300 4 355 316 327 325 344 359 28 43 49 51 50 49 38 15 339 292
58 55 55 50 35 60 82 71 50 37 44 49 45 37 29 22 18 35 20 1 338 350 3 333 320 306 305 327 9 29 30 26 25 29 30 20 351 306
61 51 46 46 44 59 79 76 58 24 23 31 31 26 28 32 38 43 20 37 4 346 1 344 327 329 317 328 348 350 357 359 358 1 2 359 349 331
79 55 41 50 59 62 66 65 54 43 47 44 36 28 26 27 26 26 22 25 24 333 334 320 311 317 297 308 329 340 344 344 346 344 339 330 315 304
93 74 62 63 64 60 59 51 54 58 55 49 40 26 17 12 8 12 22 28 21 337 329 326 313 306 304 306 310 326 336 344 342 339 339 329 311 304
89 83 73 69 65 60 51 50 54 55 53 48 34 15 2 357 358 5 19 26 29 19 12 360 345 334 313 294 296 303 315 322 330 335 334 328 319 321
87 76 68 63 61 54 47 46 46 47 50 45 27 10 7 14 15 9 8 6 15 10 9 9 359 341 318 297 282 296 311 312 323 326 324 319 322 321
96 74 61 55 52 48 45 41 39 40 41 34 33 26 21 22 14 6 8 11 13 356 351 355 357 351 330 311 306 314 321 324 324 327 323 324 323 322
90 79 70 65 61 53 47 38 33 31 26 27 31 29 26 22 16 11 11 13 11 0 352 347 349 355 5 25 3 328 331 327 325 323 319 317 320 325
82 81 75 69 63 54 46 39 26 16 17 30 33 28 25 22 19 14 10 8 6 2 356 349 352 359 357 350 353 359 337 334 333 336 335 328 314 316
73 77 73 65 58 51 43 36 27 26 29 28 25 21 20 20 18 13 9 5 359 354 353 354 356 352 342 331 327 330 341 334 331 333 335 332 322 312
75 72 70 66 57 50 43 37 33 28 21 18 16 10 8 11 11 5 360 358 355 351 351 348 339 327 312 310 325 334 342 343 323 314 316 316 320 319
84 79 65 58 56 48 40 37 34 27 18 15 7 2 360 2 1 357 354 351 350 349 344 340 341 346 356 357 347 338 336 341 349 345 328 302 304 308
89 81 67 52 44 37 32 30 30 17 6 2 1 357 356 358 355 354 352 355 356 356 352 349 350 354 356 352 347 342 342 344 347 353 356 353 334 306